Newburgh, NY

5:56 PM EDT on April 27, 2017 (GMT -0400)
Stewart International

Weather History for KSWF - March, 2013

Change the Weather History Date:

Saturday, March 9, 2013

  Actual Average Record
Temperature  
Mean Temperature 37 °F -  
Max Temperature 51 °F 41 °F 78 °F (2016)
Min Temperature 23 °F 23 °F 1 °F (1978)
Degree Days  
Heating Degree Days 28    
Moisture  
Dew Point 23 °F    
Average Humidity 59    
Maximum Humidity 93    
Minimum Humidity 30    
Precipitation  
Precipitation 0.00 in - - ()
Sea Level Pressure  
Sea Level Pressure 30.28 in    
Wind  
Wind Speed 4 mph (NE)    
Max Wind Speed 9 mph    
Max Gust Speed -    
Visibility 15 miles    
Events      
Averages and records for this station are not official NWS values.
T = Trace of Precipitation, MM = Missing Value Source: NWS Daily Summary

Daily Weather History Graph

Daily Weather History Graph

Search for Another Location

Airport or City:

Trip Planner

Search our weather history database for the weather conditions in past years. The results will help you decide how hot, cold, wet, or windy it might be!

Date:

Astronomy

Mar. 09, 2013 Rise Set
Actual Time 6:17 AM EST 5:56 PM EST
Civil Twilight 5:50 AM EST 6:24 PM EST
Nautical Twilight 5:18 AM EST 6:56 PM EST
Astronomical Twilight 4:45 AM EST 7:28 PM EST
Moon 4:41 AM EST (3/9) 3:54 PM EST (3/9)
Length of Visible Light 12h 34m
Length of Day
11h 38m
Waning Crescent, 5% of the Moon is Illuminated
Mar 9
Waning Crescent
Mar 11
New
Mar 19
First Quarter
Mar 27
Full
Apr 3
Last Quarter

Hourly Weather History & Observations

Time (EST) Temp. Windchill Dew Point Humidity Pressure Visibility Wind Dir Wind Speed Gust Speed Precip Events Conditions
12:45 AM 33.8 °F 28.6 °F 24.8 °F 70% 30.24 in 10.0 mi NNE 5.8 mph - N/A   Clear
2:50 AM 32.0 °F 26.4 °F 24.8 °F 75% 30.23 in 10.0 mi NE 5.8 mph - N/A   Clear
4:45 AM 24.8 °F 17.9 °F 23.0 °F 93% 30.26 in 10.0 mi Variable 5.8 mph - N/A   Clear
5:50 AM 23.0 °F - 21.2 °F 93% 30.27 in 20.0 mi Calm Calm - N/A   Clear
6:45 AM 26.6 °F - 23.0 °F 86% 30.28 in 15.0 mi Calm Calm - N/A   Clear
7:45 AM 32.0 °F - 23.0 °F 69% 30.29 in 15.0 mi Calm Calm - N/A   Clear
8:45 AM 37.4 °F - 23.0 °F 56% 30.30 in 15.0 mi Calm Calm - N/A   Clear
9:45 AM 39.2 °F - 23.0 °F 52% 30.30 in 15.0 mi Calm Calm - N/A   Clear
10:45 AM 41.0 °F 36.4 °F 24.8 °F 53% 30.29 in 15.0 mi North 6.9 mph - N/A   Clear
11:45 AM 42.8 °F 38.6 °F 24.8 °F 49% 30.29 in 20.0 mi North 6.9 mph - N/A   Clear
12:45 PM 46.4 °F 41.9 °F 24.8 °F 43% 30.27 in 20.0 mi North 9.2 mph - N/A   Clear
1:45 PM 46.4 °F 44.3 °F 24.8 °F 43% 30.25 in 20.0 mi Variable 4.6 mph - N/A   Clear
2:45 PM 50.0 °F - 23.0 °F 35% 30.25 in 20.0 mi Calm Calm - N/A   Clear
3:45 PM 51.8 °F - 23.0 °F 33% 30.26 in 20.0 mi Calm Calm - N/A   Clear
4:45 PM 51.8 °F - 21.2 °F 30% 30.26 in 20.0 mi East 6.9 mph - N/A   Clear
5:45 PM 48.2 °F - 21.2 °F 34% 30.27 in 20.0 mi NE 8.1 mph - N/A   Clear
6:45 PM 44.6 °F 40.7 °F 21.2 °F 39% 30.29 in 10.0 mi ENE 6.9 mph - N/A   Clear
7:45 PM 42.8 °F 38.6 °F 21.2 °F 42% 30.30 in 10.0 mi ENE 6.9 mph - N/A   Clear
8:45 PM 35.6 °F - 24.8 °F 65% 30.31 in 10.0 mi Calm Calm - N/A   Clear
9:45 PM 30.2 °F - 24.8 °F 80% 30.31 in 10.0 mi Calm Calm - N/A   Clear
10:45 PM 30.2 °F - 24.8 °F 80% 30.32 in 10.0 mi Calm Calm - N/A   Clear
11:45 PM 26.6 °F - 23.0 °F 86% 30.32 in 10.0 mi Calm Calm - N/A   Clear